TimeEST,TemperatureF,Dew PointF,Humidity,Sea Level PressureIn,VisibilityMPH,Wind Direction,Wind SpeedMPH,Gust SpeedMPH,PrecipitationIn,Events,Conditions,WindDirDegrees,DateUTC
12:15 AM,26.8,25.2,94,30.40,10.0,Calm,Calm,-,N/A,,Clear,0,2012-11-29 05:15:00
12:35 AM,26.1,24.6,94,30.40,10.0,Calm,Calm,-,N/A,,Clear,0,2012-11-29 05:35:00
12:55 AM,26.6,25.2,94,30.40,5.0,Calm,Calm,-,N/A,,Clear,0,2012-11-29 05:55:00
1:15 AM,25.5,24.1,94,30.40,10.0,Calm,Calm,-,N/A,,Clear,0,2012-11-29 06:15:00
1:35 AM,25.3,23.9,94,30.40,10.0,Calm,Calm,-,N/A,,Clear,0,2012-11-29 06:35:00
1:55 AM,25.5,24.1,94,30.41,7.0,Calm,Calm,-,N/A,,Clear,0,2012-11-29 06:55:00
2:15 AM,25.0,23.5,94,30.42,7.0,Calm,Calm,-,N/A,,Clear,0,2012-11-29 07:15:00
2:35 AM,23.9,22.8,96,30.42,10.0,Calm,Calm,-,N/A,,Clear,0,2012-11-29 07:35:00
2:55 AM,23.7,22.5,95,30.42,10.0,Calm,Calm,-,N/A,,Clear,0,2012-11-29 07:55:00
3:15 AM,23.9,22.6,95,30.42,10.0,Calm,Calm,-,N/A,,Clear,0,2012-11-29 08:15:00
3:35 AM,23.5,22.1,94,30.42,10.0,Calm,Calm,-,N/A,,Clear,0,2012-11-29 08:35:00
3:55 AM,23.4,22.1,95,30.42,10.0,Calm,Calm,-,N/A,,Clear,0,2012-11-29 08:55:00
4:15 AM,23.5,22.1,94,30.42,10.0,Calm,Calm,-,N/A,,Clear,0,2012-11-29 09:15:00
4:35 AM,22.6,21.2,94,30.42,10.0,Calm,Calm,-,N/A,,Clear,0,2012-11-29 09:35:00
4:55 AM,22.8,21.6,95,30.42,10.0,Calm,Calm,-,N/A,,Clear,0,2012-11-29 09:55:00
5:15 AM,21.7,20.3,94,30.42,10.0,Calm,Calm,-,N/A,,Clear,0,2012-11-29 10:15:00
5:35 AM,21.7,20.3,94,30.43,10.0,Calm,Calm,-,N/A,,Clear,0,2012-11-29 10:35:00
5:55 AM,21.6,20.1,94,30.43,10.0,Calm,Calm,-,N/A,,Clear,0,2012-11-29 10:55:00
6:15 AM,21.9,20.3,93,30.44,10.0,Calm,Calm,-,N/A,,Clear,0,2012-11-29 11:15:00
6:35 AM,21.7,20.3,94,30.45,10.0,Calm,Calm,-,N/A,,Clear,0,2012-11-29 11:35:00
6:55 AM,21.0,19.4,93,30.45,10.0,Calm,Calm,-,N/A,,Clear,0,2012-11-29 11:55:00
7:15 AM,20.7,19.0,93,30.46,10.0,Calm,Calm,-,N/A,,Clear,0,2012-11-29 12:15:00
7:35 AM,22.1,20.3,93,30.47,10.0,Calm,Calm,-,N/A,,Clear,0,2012-11-29 12:35:00
7:55 AM,23.2,21.2,92,30.47,10.0,Calm,Calm,-,N/A,,Clear,0,2012-11-29 12:55:00
8:15 AM,26.4,24.3,92,30.47,10.0,Calm,Calm,-,N/A,,Clear,0,2012-11-29 13:15:00
8:35 AM,28.4,26.1,91,30.47,10.0,Calm,Calm,-,N/A,,Clear,0,2012-11-29 13:35:00
8:55 AM,30.2,27.0,88,30.48,10.0,Calm,Calm,-,N/A,,Clear,0,2012-11-29 13:55:00
9:15 AM,32.2,28.8,87,30.48,10.0,Calm,Calm,-,N/A,,Clear,0,2012-11-29 14:15:00
9:35 AM,35.2,30.6,83,30.49,10.0,Calm,Calm,-,N/A,,Clear,0,2012-11-29 14:35:00
9:55 AM,37.6,29.8,74,30.49,10.0,Calm,Calm,-,N/A,,Clear,0,2012-11-29 14:55:00
10:15 AM,41.2,29.7,64,30.49,10.0,Calm,Calm,-,N/A,,Clear,0,2012-11-29 15:15:00
10:35 AM,44.1,27.5,52,30.49,10.0,Calm,Calm,-,N/A,,Clear,0,2012-11-29 15:35:00
11:15 AM,47.3,26.8,45,30.48,10.0,Calm,Calm,-,N/A,,Clear,0,2012-11-29 16:15:00
11:35 AM,48.6,24.8,39,30.48,10.0,Calm,Calm,-,N/A,,Clear,0,2012-11-29 16:35:00
11:55 AM,50.9,23.7,35,30.47,10.0,Calm,Calm,-,N/A,,Clear,0,2012-11-29 16:55:00
12:15 PM,51.8,22.5,32,30.46,10.0,Calm,Calm,-,N/A,,Clear,0,2012-11-29 17:15:00
12:35 PM,51.8,22.5,32,30.45,10.0,South,3.5,-,N/A,,Clear,180,2012-11-29 17:35:00
12:55 PM,53.1,23.4,32,30.44,10.0,WSW,3.5,-,N/A,,Clear,240,2012-11-29 17:55:00
1:15 PM,53.1,23.5,32,30.42,10.0,Calm,Calm,-,N/A,,Clear,0,2012-11-29 18:15:00
1:35 PM,54.1,25.2,33,30.42,10.0,Calm,Calm,-,N/A,,Clear,0,2012-11-29 18:35:00
1:55 PM,55.4,26.4,33,30.40,10.0,Calm,Calm,-,N/A,,Clear,0,2012-11-29 18:55:00
2:15 PM,55.2,26.8,34,30.39,10.0,South,4.6,-,N/A,,Clear,190,2012-11-29 19:15:00
2:35 PM,55.8,27.9,34,30.39,10.0,SSW,4.6,-,N/A,,Clear,200,2012-11-29 19:35:00
2:55 PM,55.6,27.7,34,30.38,10.0,West,4.6,-,N/A,,Clear,270,2012-11-29 19:55:00
3:15 PM,56.3,28.6,35,30.38,10.0,SSW,5.8,-,N/A,,Clear,200,2012-11-29 20:15:00
3:35 PM,55.9,28.9,36,30.38,10.0,South,5.8,-,N/A,,Clear,170,2012-11-29 20:35:00
3:55 PM,55.6,28.6,36,30.38,7.0,Calm,Calm,-,N/A,,Clear,0,2012-11-29 20:55:00
4:15 PM,55.0,29.3,37,30.38,10.0,SW,3.5,-,N/A,,Clear,220,2012-11-29 21:15:00
4:35 PM,53.4,30.6,42,30.37,10.0,Calm,Calm,-,N/A,,Clear,0,2012-11-29 21:35:00
4:55 PM,48.9,33.8,56,30.37,10.0,Calm,Calm,-,N/A,,Clear,0,2012-11-29 21:55:00
5:15 PM,44.8,32.2,61,30.37,10.0,Calm,Calm,-,N/A,,Clear,0,2012-11-29 22:15:00
5:35 PM,44.6,32.4,62,30.38,10.0,Calm,Calm,-,N/A,,Clear,0,2012-11-29 22:35:00
5:55 PM,42.8,32.0,66,30.39,10.0,Calm,Calm,-,N/A,,Clear,0,2012-11-29 22:55:00
6:15 PM,40.6,31.8,71,30.39,10.0,Calm,Calm,-,N/A,,Clear,0,2012-11-29 23:15:00
6:35 PM,39.9,32.0,73,30.40,10.0,Calm,Calm,-,N/A,,Clear,0,2012-11-29 23:35:00
6:55 PM,37.6,31.1,77,30.40,10.0,Calm,Calm,-,N/A,,Clear,0,2012-11-29 23:55:00
7:15 PM,35.1,30.4,83,30.40,10.0,Calm,Calm,-,N/A,,Clear,0,2012-11-30 00:15:00
7:35 PM,35.4,30.2,81,30.41,10.0,Calm,Calm,-,N/A,,Clear,0,2012-11-30 00:35:00
7:55 PM,33.3,29.8,87,30.41,10.0,Calm,Calm,-,N/A,,Clear,0,2012-11-30 00:55:00
8:15 PM,33.3,30.0,88,30.41,10.0,Calm,Calm,-,N/A,,Clear,0,2012-11-30 01:15:00
8:35 PM,32.2,28.8,87,30.41,10.0,Calm,Calm,-,N/A,,Clear,0,2012-11-30 01:35:00
8:55 PM,32.0,29.3,90,30.42,10.0,Calm,Calm,-,N/A,,Clear,0,2012-11-30 01:55:00
9:15 PM,32.0,28.9,88,30.41,10.0,Calm,Calm,-,N/A,,Clear,0,2012-11-30 02:15:00
9:35 PM,30.9,27.9,88,30.41,10.0,Calm,Calm,-,N/A,,Clear,0,2012-11-30 02:35:00
9:55 PM,31.1,28.4,90,30.42,10.0,Calm,Calm,-,N/A,,Clear,0,2012-11-30 02:55:00
10:15 PM,30.6,27.5,88,30.41,10.0,Calm,Calm,-,N/A,,Clear,0,2012-11-30 03:15:00
10:35 PM,29.5,27.1,91,30.41,10.0,Calm,Calm,-,N/A,,Clear,0,2012-11-30 03:35:00
10:55 PM,29.8,27.7,92,30.41,10.0,Calm,Calm,-,N/A,,Clear,0,2012-11-30 03:55:00
11:15 PM,28.4,26.6,93,30.40,10.0,Calm,Calm,-,N/A,,Clear,0,2012-11-30 04:15:00
11:35 PM,28.8,26.8,92,30.40,10.0,Calm,Calm,-,N/A,,Clear,0,2012-11-30 04:35:00
11:55 PM,28.4,26.6,93,30.40,10.0,Calm,Calm,-,N/A,,Clear,0,2012-11-30 04:55:00